SCP
-0 0 0 0 0 0 0 0 0 0 0 0 0 0 0 0 0 0 0 0 0 0 0 0 0 -0 -0 -0 -0 -0 0 0 -0 -0 -0 0 0 0 0 0 0 0 0 0 0 0 0 0 0
0 0 0 0 0 0 0 0 0 0 0 0 0 0 0 0 0 0 0 0 0 0 0 0 0 -0 0 0 0 0 0 0 0 0 0 0 0 0 0 0 0 0 0 0 0 0 0 0 0
0 0 0 0 0 0 0 0 0 0 0 0 0 0 0 0 0 0 0 0 0 0 0 0 0 0 0 0 0 0 0 0 0 0 0 0 0 0 0 0 0 0 0 0 0 0 0 0 0
0 0 0 0 0 0 0 0 0 0 0 0 0 0 0 0 0 0 0 0 0 0 0 0 0 0 0 0 0 0 0 0 0 0 0 0 0 0 0 0 0 0 0 0 0 0 0 0 0
0 0 0 0 0 0 0 0 0 0 0 0 0 0 0 0 0 0 0 0 0 0 0 0 0 0 0 0 0 0 0 0 0 0 0 0 0 0 0 0 0 0 0 0 0 0 0 0 0
0 0 0 0 0 0 0 0 0 0 0 0 0 0 0 0 0 0 0 0 0 0 0 0 0 0 0 0 0 0 0 0 0 0 0 0 0 0 0 0 0 0 0 0 0 0 0 0 0
0 0 0 0 0 0 0 0 0 0 0 0 0 0 0 0 0 0 0 0 0 0 0 0 0 0 0 0 0 0 0 0 0 0 0 0 0 0 0 0 0 0 0 0 0 0 0 0 0
0 0 0 0 0 0 0 0 0 0 0 0 0 0 0 0 0 0 0 0 0 0 0 0 0 0 0 0 0 0 0 0 0 0 0 0 0 0 0 0 0 0 0 0 0 0 0 0 0
0 0 0 0 0 0 0 0 0 0 0 0 0 0 0 0 0 0 0 0 0 0 0 0 0 0 0 0 0 0 0 0 0 0 0 0 0 0 0 0 0 0 0 0 0 0 0 0 0
0 0 0 0 0 0 0 0 0 0 0 0 0 0 0 0 0 0 0 0 0 0 0 0 0 0 0 0 0 0 0 0 0 0 0 0 0 0 0 0 0 0 0 0 0 0 0 0 0
0 0 0 0 0 0 0 0 0 0 0 0 0 0 0 0 0 0 0 0 0 0 0 0 0 0 0 0 0 1 1 1 0 0 0 0 0 0 0 0 0 0 0 0 0 0 0 0 0
0 0 0 0 0 0 0 0 0 0 0 0 0 0 0 0 0 0 0 0 0 0 0 0 0 0 0 0 1 1 0 1 1 0 0 0 0 0 0 0 0 0 0 0 0 0 0 0 0
0 0 0 0 0 0 0 0 0 0 0 0 0 0 0 0 0 0 0 0 0 0 0 0 0 0 0 0 0 0 1 1 1 0 0 0 0 0 0 0 0 0 0 0 0 0 0 0 0
0 0 0 0 0 0 0 0 0 0 0 0 0 0 0 0 0 0 0 0 0 0 0 0 0 0 0 0 0 0 0 0 1 0 0 0 0 0 0 0 0 0 0 0 0 0 0 0 0
0 0 0 0 0 0 0 0 0 0 0 0 0 0 0 0 0 0 0 0 0 0 0 0 0 0 0 0 0 0 0 0 0 1 0 0 0 0 0 0 0 0 0 0 0 0 0 0 0
0 0 0 0 0 0 0 0 0 0 0 0 0 0 0 0 0 0 0 0 0 0 0 0 0 0 0 0 0 0 0 0 1 1 1 0 0 0 0 0 0 0 0 0 0 0 0 0 0
0 0 0 0 0 0 0 0 0 0 0 0 0 0 0 0 0 0 0 0 0 0 0 0 0 0 0 0 0 0 0 0 0 1 1 1 1 0 0 0 0 0 0 0 0 0 0 0 0
0 0 0 0 0 0 0 0 0 0 0 0 0 0 0 0 0 0 0 0 0 0 0 0 0 0 0 0 0 0 0 0 0 0 0 1 1 0 0 0 0 0 0 0 0 0 0 0 0
0 0 0 0 0 0 0 0 0 0 0 0 0 0 0 0 0 0 0 0 0 0 0 0 0 0 0 0 0 0 0 0 0 0 0 0 0 0 0 0 0 0 0 0 0 0 0 0 0
0 0 0 0 0 -0 0 0 0 0 0 0 0 0 0 0 0 0 0 0 0 0 0 0 0 0 0 0 0 0 0 0 0 0 0 0 0 0 0 0 0 0 0 0 0 0 0 0 0
0 0 0 0 0 0 0 -0 0 0 0 0 0 0 0 0 0 0 0 0 0 0 0 0 0 0 0 0 0 0 0 0 0 0 0 0 0 0 0 0 0 0 0 0 0 0 0 0 0
0 0 0 0 0 0 0 -0 0 0 -0 0 0 0 0 0 0 0 0 0 0 0 0 0 0 0 0 0 0 0 0 0 0 0 0 0 0 0 0 0 0 0 0 0 0 0 0 0 0
0 0 0 0 0 0 0 0 0 0 0 0 0 0 0 0 0 0 0 0 0 0 0 0 0 0 0 0 0 0 0 0 0 0 0 0 0 0 0 0 0 0 0 0 0 0 0 0 0
0 0 0 0 0 0 0 0 0 0 0 0 0 0 0 0 0 0 0 0 0 0 0 0 0 0 0 0 0 0 0 0 0 0 0 0 0 0 0 0 0 0 0 0 0 0 0 0 0
0 0 0 0 0 0 0 0 0 0 0 0 0 0 0 0 0 0 0 0 0 0 0 0 0 0 0 0 0 0 0 0 0 0 0 0 0 0 0 0 0 0 0 0 0 0 0 0 0
0 0 0 0 0 0 0 0 0 0 0 0 0 0 0 0 0 0 0 0 0 0 0 0 0 0 0 0 0 0 0 0 0 0 0 0 0 0 0 0 0 0 0 0 0 0 0 0 0
0 0 0 0 0 0 0 0 0 0 0 0 0 0 0 0 0 0 0 0 0 0 0 0 0 0 0 0 0 0 0 0 0 0 0 0 0 0 0 -0 0 0 0 0 0 0 0 0 0
0 0 0 0 0 0 0 0 0 0 0 0 0 0 0 0 0 0 0 0 0 0 0 0 0 0 0 0 0 0 0 0 0 0 0 0 0 0 0 0 0 0 0 0 0 0 0 0 0
0 0 0 0 0 0 0 0 0 0 0 0 0 0 0 0 0 0 0 0 0 0 0 0 0 0 0 0 0 0 0 0 0 0 0 0 0 0 0 0 0 0 0 0 0 0 0 0 0
0 0 0 0 0 0 0 0 0 0 0 0 0 0 0 0 0 0 0 0 0 0 0 0 0 0 0 0 0 0 0 0 0 0 0 0 0 0 0 0 0 0 0 0 0 0 0 0 0
Wind_Speed_500mb
14 14 15 4 6 6 5 7 2 5 1 3 11 4 5 6 4 2 3 7 5 8 22 36 43 39 37 34 30 28 27 26 25 22 24 29 28 29 27 22 21 19 29 32 32 29 30 33 36
13 9 8 5 6 3 7 5 4 4 11 18 2 3 3 2 5 4 9 6 6 7 18 31 38 39 37 33 31 27 26 22 23 24 28 28 26 24 22 22 25 27 29 33 34 33 31 34 38
8 4 3 6 5 7 6 5 5 13 12 6 3 4 4 4 6 3 5 6 4 6 13 27 32 36 37 36 33 28 24 19 18 23 24 25 27 26 24 26 29 27 29 31 31 34 37 38 41
3 4 10 6 7 9 7 3 7 19 4 17 12 3 8 7 4 7 6 1 4 5 12 21 29 34 35 34 31 29 27 22 20 20 24 26 28 29 29 29 34 32 31 32 31 35 38 38 46
10 5 6 3 8 9 6 6 10 7 10 8 10 2 6 4 7 6 1 6 4 5 10 14 24 30 32 32 29 28 27 27 24 22 20 28 27 29 31 31 35 33 34 36 35 40 41 43 49
7 6 5 6 8 8 9 4 7 7 8 8 6 5 4 1 6 4 4 7 9 13 14 15 16 26 29 31 32 32 32 32 28 27 23 28 32 31 32 34 36 36 36 38 39 45 45 50 51
11 7 6 5 6 8 4 16 3 7 10 3 9 3 7 8 1 4 5 7 10 15 19 22 20 23 30 34 35 36 37 38 35 32 28 24 33 35 36 37 36 39 37 39 41 41 51 52 49
9 7 7 7 6 8 5 11 5 5 9 10 4 7 5 10 7 5 9 8 7 13 20 24 28 29 32 35 37 40 41 43 41 38 34 31 29 40 39 40 37 40 41 40 42 43 53 51 49
9 6 4 7 12 5 4 8 4 8 18 15 9 9 7 11 13 13 12 12 12 13 16 24 29 33 37 41 42 41 41 45 46 44 41 38 37 45 46 45 46 39 43 41 41 45 53 53 55
7 6 13 6 7 7 5 5 11 8 10 16 30 32 31 29 30 28 27 27 23 23 25 27 28 34 39 45 47 48 51 52 52 51 49 47 47 47 53 51 52 49 49 44 45 47 49 58 57
8 9 7 5 7 7 7 9 9 7 11 29 17 20 28 30 29 27 24 29 34 33 33 32 33 36 44 49 51 56 58 61 62 61 58 58 57 56 57 60 59 57 57 52 57 55 58 58 61
4 2 4 5 4 7 7 11 12 32 37 29 24 31 32 29 20 22 28 32 32 37 38 36 37 40 42 45 54 62 65 67 73 75 71 68 70 67 67 66 66 67 65 58 64 64 64 59 56
1 3 7 12 22 29 24 25 19 40 56 45 45 33 35 29 27 30 42 49 48 47 43 43 45 48 49 50 50 55 61 67 74 77 84 83 83 77 74 72 69 75 74 70 69 66 62 61 53
2 10 18 13 10 14 11 11 7 12 9 11 21 20 23 32 41 55 59 50 42 46 47 48 52 53 56 60 60 59 55 59 66 73 77 78 100 90 83 80 79 79 79 81 79 78 74 65 56
4 10 11 2 5 7 19 15 20 38 28 21 18 24 38 52 58 46 28 25 21 21 25 28 33 37 43 50 58 62 63 60 61 63 66 82 85 90 80 91 88 87 82 91 84 82 78 73 65
8 5 8 3 12 3 5 20 8 10 11 22 34 58 65 59 34 19 18 22 25 31 36 36 34 32 36 38 39 45 54 54 58 61 63 61 70 93 98 111 96 96 82 94 95 89 88 84 76
11 5 5 15 7 7 6 20 12 17 41 63 63 65 61 42 24 19 21 26 23 26 29 28 34 32 29 34 39 41 43 48 49 50 56 60 64 67 83 112 104 108 98 102 103 99 95 95 86
6 8 7 10 6 5 13 41 52 50 38 52 62 57 42 28 17 16 19 22 24 28 29 28 28 33 37 39 39 40 44 45 48 51 50 49 55 58 71 66 93 111 112 101 112 101 93 105 100
7 1 9 9 5 11 9 24 48 60 42 36 44 37 24 17 13 11 18 23 30 34 35 34 34 39 40 40 41 39 39 45 46 50 51 57 63 57 55 57 66 75 110 109 114 113 109 91 116
4 2 11 11 3 5 17 42 49 20 12 12 17 16 13 12 13 12 22 30 37 40 44 41 40 40 37 38 40 44 43 51 57 59 64 62 58 59 59 57 59 70 66 101 102 101 96 109 118
6 7 4 9 16 1 18 16 14 6 9 11 16 16 13 8 11 20 27 29 34 42 46 46 42 38 40 50 61 68 71 77 80 76 74 82 80 74 67 61 54 57 61 71 110 130 126 125 120
6 6 3 7 9 6 12 11 17 7 16 13 28 24 16 8 14 16 15 29 45 44 47 53 55 61 68 77 79 81 88 92 96 97 91 87 86 90 89 79 71 63 60 62 72 106 128 125 119
6 2 2 3 7 6 11 6 18 4 12 10 12 24 20 21 23 17 17 59 66 50 51 60 71 82 93 99 94 87 90 93 96 96 99 99 97 98 96 91 90 81 71 68 64 83 120 127 133
2 4 5 5 5 5 6 7 12 9 8 6 3 8 15 21 29 33 35 82 65 60 63 68 73 80 86 88 88 88 90 90 91 95 100 101 100 103 102 97 89 87 82 79 68 71 90 107 133
2 7 8 11 8 9 5 2 24 15 10 9 10 16 27 36 42 39 73 80 72 80 79 76 79 89 93 91 90 90 91 90 94 97 99 103 107 106 106 104 97 87 87 82 83 80 81 95 113
3 6 9 11 5 10 2 14 13 12 14 23 34 47 37 38 34 53 87 79 87 85 87 91 87 91 88 86 87 90 89 90 97 95 94 93 94 90 91 102 104 91 78 79 83 90 91 83 94
5 3 6 12 3 5 6 14 23 11 14 14 37 42 52 34 47 80 79 81 87 92 92 89 88 89 88 88 92 91 91 83 79 83 84 90 99 96 85 84 91 86 76 76 77 87 95 78 113
3 11 6 5 4 11 11 13 11 9 11 5 9 20 21 44 81 81 85 88 91 96 93 86 86 83 83 82 77 80 79 81 77 78 85 86 87 88 85 74 75 78 77 80 83 81 88 83 94
5 5 5 5 7 9 7 14 17 17 12 14 15 22 41 72 84 82 86 85 97 95 90 88 81 80 79 77 76 73 72 75 76 78 81 86 86 80 78 79 74 73 78 78 84 87 92 85 92
4 11 11 8 11 5 3 22 9 16 15 14 28 37 65 83 78 81 82 93 96 88 83 83 80 80 76 72 73 73 68 68 68 72 79 80 80 80 81 83 73 68 73 83 86 89 97 86 96
Wind_Direction_500mb
304 319 334 338 62 62 268 251 240 337 303 233 306 232 151 119 159 228 350 26 34 142 178 184 184 193 196 207 211 224 234 242 235 224 182 180 190 203 209 197 185 181 166 168 165 157 151 149 143
286 314 335 69 87 80 265 270 159 256 300 311 209 227 174 93 48 43 44 316 16 140 176 185 187 191 201 210 221 231 243 241 226 199 182 176 182 181 184 180 171 174 173 170 171 164 156 145 142
265 309 1 82 105 183 227 224 304 297 340 320 15 27 67 24 49 75 349 299 324 167 176 192 197 199 203 208 223 229 227 230 230 211 200 192 188 187 183 181 170 177 174 173 171 166 157 154 148
188 154 69 93 217 251 216 222 340 327 24 35 3 30 81 35 341 334 316 222 286 210 188 196 203 208 212 217 222 223 221 227 233 234 225 201 192 190 185 183 173 180 180 174 178 167 158 162 152
175 122 84 89 246 268 243 254 306 288 296 351 357 327 122 38 355 334 230 150 192 205 206 209 216 217 219 222 225 226 231 233 236 239 234 200 205 195 196 191 180 186 183 178 180 166 168 156 150
117 104 95 212 232 251 277 319 287 251 292 327 351 321 185 196 270 278 191 192 202 188 198 215 229 232 232 234 233 229 233 239 240 241 239 207 199 202 202 202 189 192 189 187 181 173 172 164 160
128 97 203 199 238 290 261 340 272 315 286 257 315 243 203 209 277 321 285 232 217 211 209 218 224 226 231 240 242 240 240 243 242 242 243 241 204 208 209 206 196 195 195 195 191 185 175 177 170
134 94 146 222 190 253 310 336 276 253 271 300 266 232 219 221 237 326 316 300 268 240 224 225 232 237 235 237 243 245 247 248 249 245 246 242 227 212 212 213 200 204 201 204 198 187 180 181 181
138 73 207 230 169 231 312 4 227 272 274 283 255 275 261 259 264 262 272 294 287 281 258 251 252 246 241 241 244 246 250 249 250 249 250 242 231 217 216 214 202 211 209 210 208 192 187 188 192
103 134 215 207 196 214 272 246 302 293 248 261 263 258 256 259 269 268 258 249 251 256 261 255 253 254 256 252 249 245 245 246 251 246 241 242 242 227 219 218 208 205 207 212 210 193 194 197 196
163 198 192 229 226 236 239 257 231 250 262 246 243 249 271 276 272 271 267 258 255 246 249 253 251 247 246 252 255 250 246 248 244 248 246 238 241 238 226 217 212 208 207 212 197 197 201 204 200
221 219 204 275 256 282 258 293 257 231 251 271 273 279 283 286 274 278 284 279 273 263 252 248 254 254 251 251 248 245 250 247 247 246 245 241 236 237 233 227 216 211 204 201 197 206 203 204 201
205 326 267 276 287 288 282 256 251 260 268 266 276 275 265 260 268 281 298 292 281 273 269 264 260 261 263 263 258 254 250 250 253 251 249 243 238 236 237 232 225 216 205 199 204 206 202 199 201
263 289 283 293 289 287 310 284 327 253 169 214 267 260 255 272 285 289 295 291 279 268 265 262 258 255 253 258 263 263 260 258 256 254 258 256 247 234 237 234 229 223 209 204 207 206 206 206 202
345 328 319 226 358 308 337 280 228 263 259 258 254 270 290 291 297 293 288 287 280 275 272 272 270 267 263 261 259 260 259 258 259 260 257 257 254 255 241 239 233 228 216 206 211 215 209 206 206
33 50 349 17 5 310 43 277 286 216 278 281 284 289 296 296 290 273 278 284 284 284 280 270 267 270 267 266 268 264 262 262 257 253 256 258 254 249 240 235 237 233 221 207 212 215 212 207 206
17 279 297 319 27 317 192 282 193 281 288 286 287 289 292 284 260 269 273 286 296 303 304 287 264 258 261 264 267 264 261 264 265 267 261 260 254 253 245 237 233 232 227 210 214 215 216 209 206
311 318 298 250 325 323 260 266 282 285 255 265 273 285 280 269 285 281 281 275 282 290 297 284 268 258 260 263 261 262 264 259 261 260 259 265 269 264 250 255 236 231 230 218 213 217 219 215 206
121 246 265 258 323 319 249 276 283 293 290 269 264 268 258 263 287 301 312 290 284 283 278 276 262 254 260 263 265 265 270 273 270 272 272 262 255 262 265 255 245 234 234 226 212 218 216 207 207
127 275 275 279 237 269 308 294 280 297 286 301 257 223 224 277 309 299 303 289 277 275 270 265 258 255 263 267 270 268 272 277 274 272 274 273 268 259 255 255 252 247 239 229 224 209 207 206 213
218 192 251 254 323 162 309 295 318 343 326 288 238 217 235 288 318 306 309 317 296 284 272 264 262 265 274 285 284 283 280 279 279 275 272 271 270 267 261 258 254 251 248 243 215 221 210 210 212
275 187 195 298 32 282 13 280 297 307 300 255 238 230 226 237 263 294 317 336 325 301 272 265 266 268 278 289 289 285 282 279 278 277 274 266 264 264 261 259 255 250 256 259 241 209 200 214 214
217 137 242 109 106 47 333 57 272 351 280 250 246 241 223 229 255 265 311 337 323 307 291 281 277 277 276 279 285 284 279 275 276 274 269 265 260 258 258 259 258 253 247 252 258 240 211 215 218
102 141 70 68 107 20 238 125 277 252 209 287 230 190 210 249 280 279 303 321 315 311 304 296 290 286 284 284 284 282 280 279 278 275 272 269 266 259 256 257 258 257 251 242 248 240 227 216 219
75 39 329 347 4 230 136 27 250 273 244 237 263 241 270 275 283 287 316 321 318 320 320 315 311 304 300 296 294 291 286 282 279 277 273 272 269 263 259 257 257 255 252 243 234 235 235 228 211
120 142 154 241 264 277 57 236 249 230 266 272 264 261 264 291 294 302 319 321 326 326 323 316 311 306 304 299 295 291 287 278 279 275 272 269 264 264 265 264 261 258 251 244 232 235 238 227 220
166 116 130 101 69 13 225 273 283 279 264 261 251 256 266 271 310 317 324 327 326 325 321 317 316 311 306 301 296 292 287 284 277 271 267 265 262 263 264 261 259 254 243 236 235 230 234 236 232
224 148 76 6 315 290 278 275 238 276 238 204 218 243 271 308 320 326 328 328 327 323 324 322 316 310 302 297 293 290 286 284 277 270 267 263 259 260 261 250 247 248 239 226 227 230 228 235 224
146 203 73 111 159 199 299 272 209 225 215 234 242 256 304 317 325 328 328 329 326 326 327 319 318 311 303 297 296 294 290 284 279 270 266 263 261 257 253 250 242 235 232 221 222 225 225 229 225
197 198 168 141 230 232 158 266 199 226 250 252 249 286 316 320 327 327 330 330 328 326 324 320 316 313 311 305 296 294 293 290 282 274 269 263 259 256 249 247 242 236 230 218 220 220 223 225 224
Wind_Speed_850mb
14 14 15 4 6 6 5 7 2 5 1 3 11 4 5 6 4 2 3 7 5 8 22 36 43 39 37 34 30 28 27 26 25 22 24 29 28 29 27 22 21 19 29 32 32 29 30 33 36
13 9 8 5 6 3 7 5 4 4 11 18 2 3 3 2 5 4 9 6 6 7 18 31 38 39 37 33 31 27 26 22 23 24 28 28 26 24 22 22 25 27 29 33 34 33 31 34 38
8 4 3 6 5 7 6 5 5 13 12 6 3 4 4 4 6 3 5 6 4 6 13 27 32 36 37 36 33 28 24 19 18 23 24 25 27 26 24 26 29 27 29 31 31 34 37 38 41
3 4 10 6 7 9 7 3 7 19 4 17 12 3 8 7 4 7 6 1 4 5 12 21 29 34 35 34 31 29 27 22 20 20 24 26 28 29 29 29 34 32 31 32 31 35 38 38 46
10 5 6 3 8 9 6 6 10 7 10 8 10 2 6 4 7 6 1 6 4 5 10 14 24 30 32 32 29 28 27 27 24 22 20 28 27 29 31 31 35 33 34 36 35 40 41 43 49
7 6 5 6 8 8 9 4 7 7 8 8 6 5 4 1 6 4 4 7 9 13 14 15 16 26 29 31 32 32 32 32 28 27 23 28 32 31 32 34 36 36 36 38 39 45 45 50 51
11 7 6 5 6 8 4 16 3 7 10 3 9 3 7 8 1 4 5 7 10 15 19 22 20 23 30 34 35 36 37 38 35 32 28 24 33 35 36 37 36 39 37 39 41 41 51 52 49
9 7 7 7 6 8 5 11 5 5 9 10 4 7 5 10 7 5 9 8 7 13 20 24 28 29 32 35 37 40 41 43 41 38 34 31 29 40 39 40 37 40 41 40 42 43 53 51 49
9 6 4 7 12 5 4 8 4 8 18 15 9 9 7 11 13 13 12 12 12 13 16 24 29 33 37 41 42 41 41 45 46 44 41 38 37 45 46 45 46 39 43 41 41 45 53 53 55
7 6 13 6 7 7 5 5 11 8 10 16 30 32 31 29 30 28 27 27 23 23 25 27 28 34 39 45 47 48 51 52 52 51 49 47 47 47 53 51 52 49 49 44 45 47 49 58 57
8 9 7 5 7 7 7 9 9 7 11 29 17 20 28 30 29 27 24 29 34 33 33 32 33 36 44 49 51 56 58 61 62 61 58 58 57 56 57 60 59 57 57 52 57 55 58 58 61
4 2 4 5 4 7 7 11 12 32 37 29 24 31 32 29 20 22 28 32 32 37 38 36 37 40 42 45 54 62 65 67 73 75 71 68 70 67 67 66 66 67 65 58 64 64 64 59 56
1 3 7 12 22 29 24 25 19 40 56 45 45 33 35 29 27 30 42 49 48 47 43 43 45 48 49 50 50 55 61 67 74 77 84 83 83 77 74 72 69 75 74 70 69 66 62 61 53
2 10 18 13 10 14 11 11 7 12 9 11 21 20 23 32 41 55 59 50 42 46 47 48 52 53 56 60 60 59 55 59 66 73 77 78 100 90 83 80 79 79 79 81 79 78 74 65 56
4 10 11 2 5 7 19 15 20 38 28 21 18 24 38 52 58 46 28 25 21 21 25 28 33 37 43 50 58 62 63 60 61 63 66 82 85 90 80 91 88 87 82 91 84 82 78 73 65
8 5 8 3 12 3 5 20 8 10 11 22 34 58 65 59 34 19 18 22 25 31 36 36 34 32 36 38 39 45 54 54 58 61 63 61 70 93 98 111 96 96 82 94 95 89 88 84 76
11 5 5 15 7 7 6 20 12 17 41 63 63 65 61 42 24 19 21 26 23 26 29 28 34 32 29 34 39 41 43 48 49 50 56 60 64 67 83 112 104 108 98 102 103 99 95 95 86
6 8 7 10 6 5 13 41 52 50 38 52 62 57 42 28 17 16 19 22 24 28 29 28 28 33 37 39 39 40 44 45 48 51 50 49 55 58 71 66 93 111 112 101 112 101 93 105 100
7 1 9 9 5 11 9 24 48 60 42 36 44 37 24 17 13 11 18 23 30 34 35 34 34 39 40 40 41 39 39 45 46 50 51 57 63 57 55 57 66 75 110 109 114 113 109 91 116
4 2 11 11 3 5 17 42 49 20 12 12 17 16 13 12 13 12 22 30 37 40 44 41 40 40 37 38 40 44 43 51 57 59 64 62 58 59 59 57 59 70 66 101 102 101 96 109 118
6 7 4 9 16 1 18 16 14 6 9 11 16 16 13 8 11 20 27 29 34 42 46 46 42 38 40 50 61 68 71 77 80 76 74 82 80 74 67 61 54 57 61 71 110 130 126 125 120
6 6 3 7 9 6 12 11 17 7 16 13 28 24 16 8 14 16 15 29 45 44 47 53 55 61 68 77 79 81 88 92 96 97 91 87 86 90 89 79 71 63 60 62 72 106 128 125 119
6 2 2 3 7 6 11 6 18 4 12 10 12 24 20 21 23 17 17 59 66 50 51 60 71 82 93 99 94 87 90 93 96 96 99 99 97 98 96 91 90 81 71 68 64 83 120 127 133
2 4 5 5 5 5 6 7 12 9 8 6 3 8 15 21 29 33 35 82 65 60 63 68 73 80 86 88 88 88 90 90 91 95 100 101 100 103 102 97 89 87 82 79 68 71 90 107 133
2 7 8 11 8 9 5 2 24 15 10 9 10 16 27 36 42 39 73 80 72 80 79 76 79 89 93 91 90 90 91 90 94 97 99 103 107 106 106 104 97 87 87 82 83 80 81 95 113
3 6 9 11 5 10 2 14 13 12 14 23 34 47 37 38 34 53 87 79 87 85 87 91 87 91 88 86 87 90 89 90 97 95 94 93 94 90 91 102 104 91 78 79 83 90 91 83 94
5 3 6 12 3 5 6 14 23 11 14 14 37 42 52 34 47 80 79 81 87 92 92 89 88 89 88 88 92 91 91 83 79 83 84 90 99 96 85 84 91 86 76 76 77 87 95 78 113
3 11 6 5 4 11 11 13 11 9 11 5 9 20 21 44 81 81 85 88 91 96 93 86 86 83 83 82 77 80 79 81 77 78 85 86 87 88 85 74 75 78 77 80 83 81 88 83 94
5 5 5 5 7 9 7 14 17 17 12 14 15 22 41 72 84 82 86 85 97 95 90 88 81 80 79 77 76 73 72 75 76 78 81 86 86 80 78 79 74 73 78 78 84 87 92 85 92
4 11 11 8 11 5 3 22 9 16 15 14 28 37 65 83 78 81 82 93 96 88 83 83 80 80 76 72 73 73 68 68 68 72 79 80 80 80 81 83 73 68 73 83 86 89 97 86 96
Wind_Direction_850mb
304 319 334 338 62 62 268 251 240 337 303 233 306 232 151 119 159 228 350 26 34 142 178 184 184 193 196 207 211 224 234 242 235 224 182 180 190 203 209 197 185 181 166 168 165 157 151 149 143
286 314 335 69 87 80 265 270 159 256 300 311 209 227 174 93 48 43 44 316 16 140 176 185 187 191 201 210 221 231 243 241 226 199 182 176 182 181 184 180 171 174 173 170 171 164 156 145 142
265 309 1 82 105 183 227 224 304 297 340 320 15 27 67 24 49 75 349 299 324 167 176 192 197 199 203 208 223 229 227 230 230 211 200 192 188 187 183 181 170 177 174 173 171 166 157 154 148
188 154 69 93 217 251 216 222 340 327 24 35 3 30 81 35 341 334 316 222 286 210 188 196 203 208 212 217 222 223 221 227 233 234 225 201 192 190 185 183 173 180 180 174 178 167 158 162 152
175 122 84 89 246 268 243 254 306 288 296 351 357 327 122 38 355 334 230 150 192 205 206 209 216 217 219 222 225 226 231 233 236 239 234 200 205 195 196 191 180 186 183 178 180 166 168 156 150
117 104 95 212 232 251 277 319 287 251 292 327 351 321 185 196 270 278 191 192 202 188 198 215 229 232 232 234 233 229 233 239 240 241 239 207 199 202 202 202 189 192 189 187 181 173 172 164 160
128 97 203 199 238 290 261 340 272 315 286 257 315 243 203 209 277 321 285 232 217 211 209 218 224 226 231 240 242 240 240 243 242 242 243 241 204 208 209 206 196 195 195 195 191 185 175 177 170
134 94 146 222 190 253 310 336 276 253 271 300 266 232 219 221 237 326 316 300 268 240 224 225 232 237 235 237 243 245 247 248 249 245 246 242 227 212 212 213 200 204 201 204 198 187 180 181 181
138 73 207 230 169 231 312 4 227 272 274 283 255 275 261 259 264 262 272 294 287 281 258 251 252 246 241 241 244 246 250 249 250 249 250 242 231 217 216 214 202 211 209 210 208 192 187 188 192
103 134 215 207 196 214 272 246 302 293 248 261 263 258 256 259 269 268 258 249 251 256 261 255 253 254 256 252 249 245 245 246 251 246 241 242 242 227 219 218 208 205 207 212 210 193 194 197 196
163 198 192 229 226 236 239 257 231 250 262 246 243 249 271 276 272 271 267 258 255 246 249 253 251 247 246 252 255 250 246 248 244 248 246 238 241 238 226 217 212 208 207 212 197 197 201 204 200
221 219 204 275 256 282 258 293 257 231 251 271 273 279 283 286 274 278 284 279 273 263 252 248 254 254 251 251 248 245 250 247 247 246 245 241 236 237 233 227 216 211 204 201 197 206 203 204 201
205 326 267 276 287 288 282 256 251 260 268 266 276 275 265 260 268 281 298 292 281 273 269 264 260 261 263 263 258 254 250 250 253 251 249 243 238 236 237 232 225 216 205 199 204 206 202 199 201
263 289 283 293 289 287 310 284 327 253 169 214 267 260 255 272 285 289 295 291 279 268 265 262 258 255 253 258 263 263 260 258 256 254 258 256 247 234 237 234 229 223 209 204 207 206 206 206 202
345 328 319 226 358 308 337 280 228 263 259 258 254 270 290 291 297 293 288 287 280 275 272 272 270 267 263 261 259 260 259 258 259 260 257 257 254 255 241 239 233 228 216 206 211 215 209 206 206
33 50 349 17 5 310 43 277 286 216 278 281 284 289 296 296 290 273 278 284 284 284 280 270 267 270 267 266 268 264 262 262 257 253 256 258 254 249 240 235 237 233 221 207 212 215 212 207 206
17 279 297 319 27 317 192 282 193 281 288 286 287 289 292 284 260 269 273 286 296 303 304 287 264 258 261 264 267 264 261 264 265 267 261 260 254 253 245 237 233 232 227 210 214 215 216 209 206
311 318 298 250 325 323 260 266 282 285 255 265 273 285 280 269 285 281 281 275 282 290 297 284 268 258 260 263 261 262 264 259 261 260 259 265 269 264 250 255 236 231 230 218 213 217 219 215 206
121 246 265 258 323 319 249 276 283 293 290 269 264 268 258 263 287 301 312 290 284 283 278 276 262 254 260 263 265 265 270 273 270 272 272 262 255 262 265 255 245 234 234 226 212 218 216 207 207
127 275 275 279 237 269 308 294 280 297 286 301 257 223 224 277 309 299 303 289 277 275 270 265 258 255 263 267 270 268 272 277 274 272 274 273 268 259 255 255 252 247 239 229 224 209 207 206 213
218 192 251 254 323 162 309 295 318 343 326 288 238 217 235 288 318 306 309 317 296 284 272 264 262 265 274 285 284 283 280 279 279 275 272 271 270 267 261 258 254 251 248 243 215 221 210 210 212
275 187 195 298 32 282 13 280 297 307 300 255 238 230 226 237 263 294 317 336 325 301 272 265 266 268 278 289 289 285 282 279 278 277 274 266 264 264 261 259 255 250 256 259 241 209 200 214 214
217 137 242 109 106 47 333 57 272 351 280 250 246 241 223 229 255 265 311 337 323 307 291 281 277 277 276 279 285 284 279 275 276 274 269 265 260 258 258 259 258 253 247 252 258 240 211 215 218
102 141 70 68 107 20 238 125 277 252 209 287 230 190 210 249 280 279 303 321 315 311 304 296 290 286 284 284 284 282 280 279 278 275 272 269 266 259 256 257 258 257 251 242 248 240 227 216 219
75 39 329 347 4 230 136 27 250 273 244 237 263 241 270 275 283 287 316 321 318 320 320 315 311 304 300 296 294 291 286 282 279 277 273 272 269 263 259 257 257 255 252 243 234 235 235 228 211
120 142 154 241 264 277 57 236 249 230 266 272 264 261 264 291 294 302 319 321 326 326 323 316 311 306 304 299 295 291 287 278 279 275 272 269 264 264 265 264 261 258 251 244 232 235 238 227 220
166 116 130 101 69 13 225 273 283 279 264 261 251 256 266 271 310 317 324 327 326 325 321 317 316 311 306 301 296 292 287 284 277 271 267 265 262 263 264 261 259 254 243 236 235 230 234 236 232
224 148 76 6 315 290 278 275 238 276 238 204 218 243 271 308 320 326 328 328 327 323 324 322 316 310 302 297 293 290 286 284 277 270 267 263 259 260 261 250 247 248 239 226 227 230 228 235 224
146 203 73 111 159 199 299 272 209 225 215 234 242 256 304 317 325 328 328 329 326 326 327 319 318 311 303 297 296 294 290 284 279 270 266 263 261 257 253 250 242 235 232 221 222 225 225 229 225
197 198 168 141 230 232 158 266 199 226 250 252 249 286 316 320 327 327 330 330 328 326 324 320 316 313 311 305 296 294 293 290 282 274 269 263 259 256 249 247 242 236 230 218 220 220 223 225 224